Location: Fort Wayne
(41.1310°N, 85.1290°W)
Time: 02:10:54
(UTC-05:00)

Gbstr 26 Del rocket - Visible Passes

Search period start: 13 December 2017 00:00
Search period end: 23 December 2017 00:00
Orbit: 494 x 1265 km, 51.8° (Epoch: 12 December)

Date Brightness Start Highest point End Pass type
(mag) Time Alt. Az. Time Alt. Az. Time Alt. Az.
13 Dec 4.5 19:00:00 10° SSW 19:07:50 60° SE 19:10:43 37° ENE visible
13 Dec 5.3 20:47:55 10° WSW 20:53:18 41° WNW 20:53:18 41° WNW visible
14 Dec 4.4 18:55:21 10° SW 19:03:21 70° SE 19:06:47 34° ENE visible
14 Dec 5.3 20:43:41 10° W 20:49:22 41° WNW 20:49:22 41° WNW visible
15 Dec 4.3 18:50:47 10° SW 18:58:52 81° SE 19:02:47 31° ENE visible
15 Dec 5.2 20:39:27 10° W 20:45:22 40° NW 20:45:22 40° NW visible
16 Dec 4.4 18:46:17 10° SW 18:54:24 89° NW 18:58:45 27° NE visible
16 Dec 5.3 20:35:15 10° W 20:41:19 39° NW 20:41:19 39° NW visible
17 Dec 4.5 18:41:51 10° WSW 18:49:57 79° NW 18:54:40 25° NE visible
17 Dec 5.3 20:31:04 10° W 20:37:13 37° NNW 20:37:13 37° NNW visible
18 Dec 4.6 18:37:28 10° WSW 18:45:32 70° NNW 18:50:32 22° NE visible
18 Dec 5.3 20:26:53 10° WNW 20:33:05 36° NNW 20:33:05 36° NNW visible
19 Dec 4.7 18:33:08 10° WSW 18:41:09 62° NNW 18:46:22 20° NE visible
19 Dec 5.3 20:22:41 10° WNW 20:28:56 35° NNW 20:28:56 35° NNW visible
20 Dec 4.8 18:28:51 10° WSW 18:36:46 56° NNW 18:42:11 19° NE visible
20 Dec 5.3 20:18:29 10° WNW 20:24:45 34° NNW 20:24:45 34° NNW visible
21 Dec 4.9 18:24:35 10° W 18:32:25 51° NNW 18:37:59 17° NE visible
21 Dec 5.3 20:14:15 10° WNW 20:20:33 34° NNW 20:20:33 34° NNW visible
21 Dec 6.9 22:03:01 10° NW 22:03:06 10° NW 22:03:06 10° NW visible
22 Dec 5.0 18:20:21 10° W 18:28:05 47° NNW 18:33:47 16° NE visible
22 Dec 5.2 20:10:00 10° WNW 20:16:21 34° N 20:16:21 34° N visible
22 Dec 6.8 21:58:35 10° NW 21:58:54 11° NW 21:58:54 11° NW visible
